TimeAKST,TemperatureF,Dew PointF,Humidity,Sea Level PressureIn,VisibilityMPH,Wind Direction,Wind SpeedMPH,Gust SpeedMPH,PrecipitationIn,Events,Conditions,WindDirDegrees,DateUTC
12:16 AM,14.0,-4.0,45,29.77,10.0,North,12.7,29.9,N/A,,Clear,10,2011-11-16 09:16:00
12:36 AM,15.8,-4.0,41,29.76,10.0,North,11.5,26.5,N/A,,Clear,10,2011-11-16 09:36:00
12:56 AM,15.8,-4.0,41,29.76,10.0,North,17.3,25.3,N/A,,Clear,10,2011-11-16 09:56:00
1:16 AM,15.8,-4.0,41,29.75,10.0,North,10.4,25.3,N/A,,Clear,360,2011-11-16 10:16:00
1:36 AM,15.8,-4.0,41,29.76,9.0,North,17.3,34.5,N/A,,Clear,10,2011-11-16 10:36:00
1:56 AM,15.8,-4.0,41,29.75,10.0,North,15.0,31.1,N/A,,Clear,360,2011-11-16 10:56:00
2:16 AM,15.8,-4.0,41,29.76,9.0,North,18.4,33.4,N/A,,Clear,10,2011-11-16 11:16:00
2:56 AM,15.8,-4.0,41,29.75,7.0,North,16.1,32.2,N/A,,Clear,10,2011-11-16 11:56:00
3:16 AM,15.8,-4.0,41,29.75,10.0,North,9.2,24.2,N/A,,Clear,360,2011-11-16 12:16:00
3:36 AM,15.8,-4.0,41,29.76,9.0,North,16.1,27.6,N/A,,Clear,10,2011-11-16 12:36:00
3:56 AM,15.8,-5.8,38,29.76,7.0,North,19.6,29.9,N/A,,Clear,360,2011-11-16 12:56:00
4:16 AM,15.8,-5.8,38,29.76,9.0,North,16.1,33.4,N/A,,Clear,10,2011-11-16 13:16:00
4:36 AM,15.8,-5.8,38,29.77,9.0,North,16.1,34.5,N/A,,Clear,360,2011-11-16 13:36:00
4:56 AM,15.8,-5.8,38,29.77,5.0,North,12.7,38.0,N/A,,Clear,360,2011-11-16 13:56:00
5:16 AM,15.8,-5.8,38,29.78,9.0,North,23.0,34.5,N/A,,Clear,360,2011-11-16 14:16:00
5:36 AM,15.8,-5.8,38,29.78,10.0,North,12.7,26.5,N/A,,Clear,10,2011-11-16 14:36:00
5:56 AM,15.8,-5.8,38,29.79,5.0,North,16.1,32.2,N/A,,Clear,360,2011-11-16 14:56:00
6:16 AM,15.8,-5.8,38,29.80,7.0,North,15.0,35.7,N/A,,Clear,10,2011-11-16 15:16:00
6:36 AM,15.8,-5.8,38,29.80,7.0,North,15.0,33.4,N/A,,Clear,360,2011-11-16 15:36:00
7:16 AM,15.8,-5.8,38,29.81,10.0,North,11.5,29.9,N/A,,Clear,10,2011-11-16 16:16:00
7:36 AM,15.8,-5.8,38,29.81,9.0,North,13.8,34.5,N/A,,Clear,10,2011-11-16 16:36:00
7:56 AM,15.8,-5.8,38,29.81,9.0,North,11.5,24.2,N/A,,Clear,10,2011-11-16 16:56:00
8:16 AM,15.8,-4.0,41,29.83,10.0,North,12.7,24.2,N/A,,Clear,360,2011-11-16 17:16:00
8:36 AM,15.8,-5.8,38,29.84,7.0,North,17.3,32.2,N/A,,Clear,10,2011-11-16 17:36:00
8:56 AM,15.8,-5.8,38,29.83,8.0,North,11.5,29.9,N/A,,Clear,10,2011-11-16 17:56:00
9:16 AM,15.8,-5.8,38,29.84,9.0,North,11.5,27.6,N/A,,Clear,10,2011-11-16 18:16:00
9:36 AM,15.8,-4.0,41,29.85,9.0,North,11.5,26.5,N/A,,Clear,360,2011-11-16 18:36:00
9:56 AM,15.8,-5.8,38,29.86,10.0,North,11.5,28.8,N/A,,Clear,10,2011-11-16 18:56:00
10:16 AM,15.8,-4.0,41,29.85,10.0,North,10.4,23.0,N/A,,Clear,10,2011-11-16 19:16:00
10:36 AM,15.8,-5.8,38,29.86,6.0,North,17.3,33.4,N/A,,Clear,10,2011-11-16 19:36:00
10:56 AM,17.6,-5.8,35,29.86,10.0,North,17.3,31.1,N/A,,Clear,360,2011-11-16 19:56:00
11:16 AM,17.6,-5.8,35,29.88,6.0,North,24.2,33.4,N/A,,Clear,10,2011-11-16 20:16:00
11:36 AM,17.6,-5.8,35,29.87,9.0,NNE,15.0,33.4,N/A,,Clear,20,2011-11-16 20:36:00
11:56 AM,17.6,-5.8,35,29.88,8.0,North,23.0,34.5,N/A,,Clear,10,2011-11-16 20:56:00
12:16 PM,17.6,-5.8,35,29.88,10.0,North,17.3,31.1,N/A,,Clear,360,2011-11-16 21:16:00
12:36 PM,17.6,-4.0,38,29.88,10.0,North,8.1,23.0,N/A,,Clear,350,2011-11-16 21:36:00
12:56 PM,17.6,-5.8,35,29.89,10.0,North,16.1,23.0,N/A,,Clear,350,2011-11-16 21:56:00
1:16 PM,17.6,-5.8,35,29.89,10.0,North,18.4,27.6,N/A,,Clear,10,2011-11-16 22:16:00
1:36 PM,17.6,-5.8,35,29.89,10.0,North,12.7,26.5,N/A,,Clear,10,2011-11-16 22:36:00
1:56 PM,17.6,-5.8,35,29.90,10.0,NNE,16.1,27.6,N/A,,Clear,20,2011-11-16 22:56:00
2:16 PM,17.6,-5.8,35,29.90,10.0,NNE,12.7,25.3,N/A,,Clear,20,2011-11-16 23:16:00
2:36 PM,17.6,-5.8,35,29.90,9.0,NNE,13.8,27.6,N/A,,Clear,20,2011-11-16 23:36:00
2:56 PM,17.6,-5.8,35,29.90,9.0,North,16.1,35.7,N/A,,Clear,10,2011-11-16 23:56:00
3:16 PM,17.6,-7.6,32,29.90,9.0,North,16.1,28.8,N/A,,Clear,10,2011-11-17 00:16:00
3:36 PM,17.6,-7.6,32,29.90,9.0,NNE,10.4,34.5,N/A,,Clear,20,2011-11-17 00:36:00
3:56 PM,17.6,-7.6,32,29.90,10.0,North,11.5,26.5,N/A,,Clear,10,2011-11-17 00:56:00
4:16 PM,17.6,-7.6,32,29.91,8.0,North,12.7,35.7,N/A,,Clear,10,2011-11-17 01:16:00
4:36 PM,15.8,-7.6,35,29.92,9.0,North,18.4,25.3,N/A,,Clear,10,2011-11-17 01:36:00
4:56 PM,15.8,-5.8,38,29.91,10.0,North,12.7,23.0,N/A,,Clear,10,2011-11-17 01:56:00
5:16 PM,15.8,-5.8,38,29.92,10.0,North,13.8,27.6,N/A,,Clear,360,2011-11-17 02:16:00
5:36 PM,15.8,-5.8,38,29.93,9.0,NNE,16.1,26.5,N/A,,Clear,20,2011-11-17 02:36:00
5:56 PM,15.8,-5.8,38,29.93,10.0,North,10.4,25.3,N/A,,Clear,10,2011-11-17 02:56:00
6:16 PM,15.8,-5.8,38,29.93,10.0,North,17.3,26.5,N/A,,Clear,10,2011-11-17 03:16:00
6:36 PM,15.8,-5.8,38,29.93,10.0,North,12.7,25.3,N/A,,Clear,10,2011-11-17 03:36:00
6:56 PM,15.8,-5.8,38,29.95,10.0,North,12.7,25.3,N/A,,Clear,10,2011-11-17 03:56:00
7:16 PM,15.8,-5.8,38,29.95,10.0,North,12.7,27.6,N/A,,Clear,360,2011-11-17 04:16:00
7:36 PM,15.8,-7.6,35,29.98,9.0,NNE,20.7,38.0,N/A,,Clear,20,2011-11-17 04:36:00
7:56 PM,15.8,-7.6,35,29.96,10.0,North,17.3,28.8,N/A,,Clear,10,2011-11-17 04:56:00
8:16 PM,15.8,-7.6,35,29.96,10.0,NNE,11.5,24.2,N/A,,Clear,20,2011-11-17 05:16:00
8:36 PM,15.8,-7.6,35,29.96,9.0,North,13.8,27.6,N/A,,Clear,10,2011-11-17 05:36:00
8:56 PM,15.8,-7.6,35,29.96,10.0,North,11.5,24.2,N/A,,Clear,10,2011-11-17 05:56:00
9:16 PM,15.8,-5.8,38,29.95,10.0,NNE,12.7,21.9,N/A,,Clear,20,2011-11-17 06:16:00
9:36 PM,15.8,-5.8,38,29.95,10.0,NNE,11.5,21.9,N/A,,Clear,30,2011-11-17 06:36:00
9:56 PM,15.8,-5.8,38,29.95,10.0,NNE,12.7,23.0,N/A,,Clear,20,2011-11-17 06:56:00
10:16 PM,15.8,-5.8,38,29.96,10.0,NNE,11.5,20.7,N/A,,Clear,20,2011-11-17 07:16:00
10:36 PM,15.8,-5.8,38,29.96,10.0,NNE,10.4,20.7,N/A,,Clear,30,2011-11-17 07:36:00
10:56 PM,15.8,-5.8,38,29.96,10.0,North,11.5,19.6,N/A,,Clear,10,2011-11-17 07:56:00
11:16 PM,15.8,-5.8,38,29.96,10.0,NNE,9.2,20.7,N/A,,Clear,30,2011-11-17 08:16:00
11:36 PM,15.8,-5.8,38,29.96,10.0,North,9.2,19.6,N/A,,Clear,10,2011-11-17 08:36:00
11:56 PM,15.8,-5.8,38,29.97,10.0,North,8.1,23.0,N/A,,Clear,10,2011-11-17 08:56:00